Regional Weather Roundup
Issued by NWS Bismarck, ND

Home | Current Version | Previous Version | Text Only | Print | Product List | Glossary On
Versions: 1 2 3 4 5 6 7 8 9 10 11 12 13 14 15 16 17 18 19 20 21 22 23 24 25 26 27 28 29 30 31 32 33 34 35 36 37 38 39 40 41 42 43 44 45 46 47 48 49 50
673
ASUS43 KBIS 101610
RWRBIS

NWR BROADCAST TEXT
NATIONAL WEATHER SERVICE BISMARCK ND
1000 AM CST SAT DEC 10 2016

NOTE: "FAIR" INDICATES FEW OR NO CLOUDS BELOW 12,000 FEET WITH NO
SIGNIFICANT WEATHER AND/OR OBSTRUCTIONS TO VISIBILITY.


CITY           SKY/WX    TMP DP  RH WIND       PRES   REMARKS
WILLISTON      CLOUDY    -3  -9  75 E7        30.17F WCI -16
MINOT          CLOUDY   -18 -22  82 S5        30.28F WCI -31
MINOT AFB      CLOUDY   -23 -29  73 SE5       30.28F WCI -36
BISMARCK       CLOUDY   -16 -20  82 NE6       30.31F WCI -31
DICKINSON      CLOUDY    -4  -9  79 SE16      30.07F WCI -25
GARRISON         N/A    -10 -14  82 E9        30.24F WCI -27
HETTINGER ARPT CLOUDY    -4  -9  79 SE13      30.07F WCI -23
JAMESTOWN      CLOUDY   -10 -14  82 SE3       30.35S
CARRINGTON     FAIR     -17 -22  76 SE3       30.36S
HAZEN          CLOUDY   N/A N/A N/A E5        30.28F
RUGBY            N/A    -17 -20  83 CALM      30.34S
STANLEY        CLOUDY   -13 -17  84 SE6       30.20F HAZE    WCI -27
TIOGA          PTSUNNY  -13 -17  84 E6        30.18S WCI -27
WATFORD CITY   FAIR      -6  -9  84 SE17      30.15F WCI -28
$$

CITY           SKY/WX    TMP DP  RH WIND       PRES   REMARKS
GRAND FORKS    CLOUDY    -6 -13  71 NE5       30.46F WCI -17
GRAND FORKS AF CLOUDY    -9 -14  77 CALM      30.45F
DEVILS LAKE    CLOUDY   -12 -16  82 CALM      30.36F
FARGO          CLOUDY    -2  -9  72 E5        30.44F WCI -12
CANDO          FAIR     -11 -17  77 CALM      30.38F
CAVALIER         N/A     -9 -15  77 S3        30.46S
GRAFTON        FAIR      -9 -15  77 CALM      30.49S
GWINNER        CLOUDY    -4  -8  84 E5        30.39F WCI -15
LANGDON        FAIR     -13 -18  77 S7        30.35S WCI -29
ROLLA          FAIR     -17 -22  76 SW5       30.30F WCI -29
WALHALLA         N/A    -13 -13 100 CALM      30.45S
$$

CITY           SKY/WX    TMP DP  RH WIND       PRES   REMARKS
ABERDEEN       CLOUDY    -2 -11  65 NE7       30.38S WCI -15
MOBRIDGE       LGT SNOW   0  -8  69 E10       30.21F WCI -16
BUFFALO          N/A      1  -4  79 SE18      29.90F WCI -20
RAPID CITY     CLOUDY     2  -1  88 SE9       29.98F WCI -13
GLASGOW        LGT SNOW  -1  -7  75 E14       30.01S VSB 3/4 WCI -20
SIDNEY         FLURRIES   0  -7  72 E12       30.12F WCI -17
WOLF POINT     LGT SNOW  -2  -9  72 NE16      30.09F WCI -23
GLENDIVE       CLOUDY     3  -1  83 SE12      30.01F WCI -13
MILES CITY     CLOUDY     8   0  69 SE12      29.93F WCI  -7
BAKER          CLOUDY     0  -5  79 SE22      29.95F WCI -23
$$

CITY           SKY/WX    TMP DP  RH WIND       PRES   REMARKS
BILLINGS       LGT SNOW   9   7  92 S8        29.77F FOG     WCI  -3
GREAT FALLS    CLOUDY     2  -2  83 CALM      29.72F
REGINA         MOCLDY   -17 -22  76 SE12      30.19F WCI -38
ESTEVAN        CLOUDY   -20 -26  76 E9        30.22F WCI -40
$$





USA.gov is the U.S. government's official web portal to all federal, state and local government web resources and services.